カタログに戻る

FENGYUN 1C DEB

運用中SSO
NORAD 31014·DEBRIS·🇨🇳 China

打ち上げ May 10, 1999 から Taiyuan Satellite Launch Center

Loading…

次のパス (今後24時間)

TLE

最新Source: Space-Track

元期: Sep 14, 2026, 10:00 UTC

1 31014U 99025BDG 26257.41703595 -.00000256  00000-0 -14406-3 0  9993
2 31014  98.9013 229.5070 0088596 151.0432   1.1107 13.98583369996894

AllMySatでFENGYUN 1C DEBをリアルタイム追跡

Download on the App Store